TimeHST,TemperatureF,Dew PointF,Humidity,Sea Level PressureIn,VisibilityMPH,Wind Direction,Wind SpeedMPH,Gust SpeedMPH,PrecipitationIn,Events,Conditions,WindDirDegrees,DateUTC
12:46 AM,77.0,64.4,65,29.95,10.0,SSE,5.8,-,N/A,,Mostly Cloudy,150,2012-11-04 10:46:00
12:53 AM,77.0,64.0,64,29.96,10.0,SE,6.9,-,N/A,,Mostly Cloudy,140,2012-11-04 10:53:00
1:53 AM,78.1,66.0,66,29.95,10.0,SSW,6.9,-,N/A,,Overcast,210,2012-11-04 11:53:00
2:53 AM,75.9,64.0,67,29.94,10.0,Variable,3.5,-,N/A,,Clear,0,2012-11-04 12:53:00
3:53 AM,73.9,64.0,71,29.94,10.0,NE,5.8,-,N/A,,Partly Cloudy,50,2012-11-04 13:53:00
4:53 AM,75.0,64.0,69,29.94,10.0,NE,8.1,-,N/A,,Scattered Clouds,40,2012-11-04 14:53:00
5:53 AM,75.9,64.0,67,29.95,10.0,NNE,11.5,-,N/A,,Mostly Cloudy,30,2012-11-04 15:53:00
6:53 AM,75.0,62.1,64,29.96,10.0,NNE,10.4,-,N/A,,Clear,30,2012-11-04 16:53:00
7:53 AM,80.1,63.0,56,29.97,10.0,North,9.2,-,N/A,,Clear,10,2012-11-04 17:53:00
8:53 AM,82.9,63.0,51,29.98,10.0,North,11.5,-,N/A,,Clear,360,2012-11-04 18:53:00
9:53 AM,82.9,64.0,53,29.99,10.0,NNW,12.7,-,N/A,,Clear,330,2012-11-04 19:53:00
10:53 AM,84.0,66.0,55,29.97,10.0,NNW,15.0,-,N/A,,Clear,330,2012-11-04 20:53:00
11:53 AM,84.9,66.9,55,29.95,10.0,NNW,15.0,-,N/A,,Clear,330,2012-11-04 21:53:00
12:53 PM,84.9,66.9,55,29.93,10.0,NW,13.8,-,N/A,,Clear,320,2012-11-04 22:53:00
1:53 PM,84.9,68.0,57,29.92,10.0,NNW,13.8,-,N/A,,Clear,330,2012-11-04 23:53:00
2:53 PM,84.0,66.9,56,29.92,10.0,NNW,15.0,-,N/A,,Partly Cloudy,330,2012-11-05 00:53:00
3:53 PM,82.9,66.9,58,29.93,10.0,NNW,17.3,-,N/A,,Mostly Cloudy,330,2012-11-05 01:53:00
4:53 PM,81.0,68.0,65,29.94,10.0,NNW,16.1,-,N/A,,Partly Cloudy,340,2012-11-05 02:53:00
5:53 PM,80.1,66.9,64,29.95,10.0,NNW,16.1,-,N/A,,Overcast,330,2012-11-05 03:53:00
6:53 PM,79.0,68.0,69,29.95,10.0,NNW,16.1,-,N/A,,Mostly Cloudy,340,2012-11-05 04:53:00
7:53 PM,79.0,68.0,69,29.97,10.0,North,15.0,-,N/A,,Clear,350,2012-11-05 05:53:00
8:53 PM,78.1,66.9,68,29.97,10.0,North,10.4,-,N/A,,Clear,10,2012-11-05 06:53:00
9:53 PM,77.0,66.0,69,29.97,10.0,NE,3.5,-,N/A,,Partly Cloudy,50,2012-11-05 07:53:00
10:53 PM,78.1,66.0,66,29.96,10.0,ESE,4.6,-,N/A,,Mostly Cloudy,110,2012-11-05 08:53:00
11:53 PM,77.0,64.0,64,29.95,10.0,ESE,3.5,-,N/A,,Mostly Cloudy,110,2012-11-05 09:53:00